Main page


Airports :

Semnan, Iran

latitude: 35-33N, longitude: 053-23E, elevation: 1171 m

Current weather observation

The report was made 35 minutes ago, at 04:00 UTC
Wind 4 kt from the South
Temperature 14°C
Humidity 28%
Pressure 1009 hPa
Visibility 10 km or more
Scattered clouds at a height of 3500 ft
Broken clouds at a height of 9000 ft

METAR: OIIS 170400Z 18004KT 9999 SCT035 BKN090 14/M04 Q1009

Time: 08:05 (04:35 UTC)

TAF: missing

Weather observations and forecasts of more than 4000 airports (METAR and TAF reports).

The available stations are represented by yellow and red dots on the map.

Hover mouse over dot to see the name of the station.

Then click to see weather observations and forecasts.

To change the map : click on the green buttons with a black cross to zoom in, on the green button with a dash to zoom out, or on the green arrows for adjacent maps.